Terminal Aerodrome Forecast
Issued by NWS

Current Version | Previous Version | Graphics & Text | Print | Product List | Glossary On
Versions: 1 2 3 4 5 6 7 8 9 10 11 12 13 14 15 16 17 18
208
FTUS41 KPBZ 200841 AAA
TAFMGW
TAF AMD
KMGW 200841Z 2009/2106 VRB03KT P6SM SCT035
      TEMPO 2009/2012 BKN012
     FM201500 07005KT P6SM BKN050
     FM202200 12006KT P6SM VCTS BKN050CB=

USA.gov is the U.S. government's official web portal to all federal, state and local government web resources and services.